• In Hungary
  • List of Countries
  • For 7 days
  • Water Temperature
  • Satellite Maps
  • Weather Map
  • News
  • Weather Widgets
  • user-avatar
    Login

    Hourly Weather Freising

    Today, 19 August, Sunday

    Time Temperature Precipitation Wind Pressure Humidity
    00:00 +20°C° 0 mm 1 mps 725 mmHg 85%
    01:00 +19°C° 0 mm 1 mps 725 mmHg 86%
    02:00 +19°C° 0 mm 1 mps 725 mmHg 87%
    03:00 +19°C° 0 mm 1 mps 725 mmHg 88%
    04:00 +18°C° 0 mm 1 mps 725 mmHg 90%
    05:00 +19°C° 0 mm 1 mps 725 mmHg 88%
    06:00 +20°C° 0 mm 1 mps 725 mmHg 86%
    07:00 +21°C° 0 mm 1 mps 725 mmHg 81%
    08:00 +23°C° 0 mm 1 mps 726 mmHg 75%
    09:00 +25°C° 0 mm 1 mps 726 mmHg 69%
    10:00 +27°C° 0 mm 1 mps 726 mmHg 63%
    11:00 +28°C° 0 mm 1 mps 725 mmHg 58%
    12:00 +29°C° 0 mm 1 mps 725 mmHg 54%
    13:00 +30°C° 0 mm 2 mps 725 mmHg 49%
    14:00 +30°C° 0 mm 2 mps 725 mmHg 49%
    15:00 +30°C° 0 mm 1 mps 725 mmHg 49%
    16:00 +29°C° 0 mm 1 mps 725 mmHg 49%
    17:00 +28°C° 0 mm 1 mps 725 mmHg 55%
    18:00 +26°C° 0 mm 1 mps 724 mmHg 60%
    19:00 +24°C° 0 mm 1 mps 724 mmHg 66%
    20:00 +23°C° 0 mm 1 mps 724 mmHg 69%
    21:00 +22°C° 0 mm 1 mps 725 mmHg 71%
    22:00 +21°C° 0 mm 1 mps 725 mmHg 73%
    23:00 +21°C° 0 mm 1 mps 725 mmHg 76%

    Tomorrow, 20 August, Monday

    Time Temperature Precipitation Wind Pressure Humidity
    00:00 +20°C° 0 mm 1 mps 725 mmHg 78%
    01:00 +20°C° 0 mm 1 mps 725 mmHg 80%
    02:00 +19°C° 0 mm 1 mps 725 mmHg 81%
    03:00 +19°C° 0 mm 1 mps 724 mmHg 82%
    04:00 +17°C° 0 mm 2 mps 724 mmHg 84%
    05:00 +18°C° 0 mm 2 mps 724 mmHg 82%
    06:00 +19°C° 0 mm 2 mps 725 mmHg 81%
    07:00 +19°C° 0 mm 2 mps 725 mmHg 80%
    08:00 +21°C° 0 mm 2 mps 725 mmHg 73%
    09:00 +24°C° 0 mm 2 mps 725 mmHg 67%
    10:00 +25°C° 0 mm 2 mps 725 mmHg 60%
    11:00 +26°C° 0 mm 2 mps 725 mmHg 58%
    12:00 +27°C° 0 mm 2 mps 725 mmHg 56%
    13:00 +28°C° 0 mm 3 mps 725 mmHg 54%
    14:00 +28°C° 0 mm 2 mps 724 mmHg 54%
    15:00 +28°C° 0 mm 2 mps 724 mmHg 54%
    16:00 +28°C° 0 mm 2 mps 724 mmHg 55%
    17:00 +26°C° 0.1 mm 2 mps 724 mmHg 61%
    18:00 +25°C° 0.1 mm 2 mps 724 mmHg 68%
    19:00 +23°C° 0.1 mm 1 mps 724 mmHg 75%
    20:00 +22°C° 0 mm 1 mps 725 mmHg 78%
    21:00 +21°C° 0 mm 1 mps 725 mmHg 82%
    22:00 +20°C° 0 mm 1 mps 725 mmHg 86%
    23:00 +20°C° 0 mm 1 mps 725 mmHg 87%

    Day after tomorrow, 21 August, Tuesday

    Time Temperature Precipitation Wind Pressure Humidity
    00:00 +19°C° 0 mm 1 mps 725 mmHg 89%
    01:00 +17°C° 0 mm 0 mps 725 mmHg 91%
    02:00 +17°C° 0 mm 0 mps 725 mmHg 91%
    03:00 +16°C° 0 mm 0 mps 725 mmHg 92%
    04:00 +16°C° 0 mm 0 mps 725 mmHg 92%
    05:00 +17°C° 0 mm 0 mps 725 mmHg 90%
    06:00 +17°C° 0 mm 0 mps 725 mmHg 88%
    07:00 +18°C° 0 mm 0 mps 725 mmHg 86%
    08:00 +22°C° 0 mm 1 mps 725 mmHg 80%
    09:00 +24°C° 0 mm 1 mps 725 mmHg 73%
    10:00 +25°C° 0 mm 1 mps 725 mmHg 66%
    11:00 +26°C° 0 mm 1 mps 725 mmHg 63%
    12:00 +27°C° 0 mm 1 mps 725 mmHg 60%
    13:00 +28°C° 0 mm 2 mps 725 mmHg 56%
    14:00 +28°C° 0 mm 2 mps 724 mmHg 56%
    15:00 +28°C° 0 mm 2 mps 724 mmHg 56%
    16:00 +28°C° 0 mm 2 mps 724 mmHg 56%
    17:00 +27°C° 0 mm 2 mps 724 mmHg 62%
    18:00 +25°C° 0 mm 1 mps 724 mmHg 68%
    19:00 +24°C° 0 mm 1 mps 724 mmHg 74%
    20:00 +23°C° 0 mm 1 mps 724 mmHg 77%
    21:00 +22°C° 0 mm 1 mps 724 mmHg 81%
    22:00 +21°C° 0 mm 1 mps 724 mmHg 84%
    23:00 +20°C° 0 mm 1 mps 724 mmHg 86%

    22 August, Wednesday

    Time Temperature Precipitation Wind Pressure Humidity
    00:00 +20°C° 0 mm 1 mps 724 mmHg 88%
    01:00 +19°C° 0 mm 1 mps 724 mmHg 91%
    02:00 +19°C° 0 mm 1 mps 724 mmHg 92%
    03:00 +18°C° 0 mm 1 mps 724 mmHg 93%
    04:00 +18°C° 0 mm 1 mps 724 mmHg 94%
    05:00 +19°C° 0 mm 1 mps 724 mmHg 92%
    06:00 +19°C° 0 mm 1 mps 724 mmHg 90%
    07:00 +20°C° 0 mm 1 mps 724 mmHg 88%
    08:00 +22°C° 0 mm 1 mps 724 mmHg 81%
    09:00 +24°C° 0 mm 1 mps 724 mmHg 73%
    10:00 +26°C° 0 mm 1 mps 724 mmHg 66%
    11:00 +27°C° 0 mm 1 mps 724 mmHg 63%
    12:00 +28°C° 0 mm 1 mps 723 mmHg 59%
    13:00 +29°C° 0 mm 2 mps 723 mmHg 55%
    14:00 +29°C° 0 mm 1 mps 723 mmHg 55%
    15:00 +29°C° 0 mm 1 mps 723 mmHg 55%
    16:00 +29°C° 0 mm 1 mps 723 mmHg 55%
    17:00 +28°C° 0.3 mm 1 mps 723 mmHg 61%
    18:00 +26°C° 0.3 mm 1 mps 723 mmHg 67%
    19:00 +22°C° 0.3 mm 0 mps 723 mmHg 73%
    20:00 +22°C° 0.4 mm 0 mps 723 mmHg 75%
    21:00 +23°C° 0.4 mm 1 mps 723 mmHg 76%
    22:00 +22°C° 0.4 mm 1 mps 723 mmHg 78%
    23:00 +22°C° 0.1 mm 1 mps 723 mmHg 80%

    23 August, Thursday

    Time Temperature Precipitation Wind Pressure Humidity
    00:00 +22°C° 0.1 mm 1 mps 723 mmHg 82%
    01:00 +21°C° 0.1 mm 1 mps 723 mmHg 83%
    02:00 +21°C° 0 mm 1 mps 722 mmHg 85%
    03:00 +20°C° 0 mm 1 mps 722 mmHg 87%
    04:00 +20°C° 0 mm 1 mps 722 mmHg 89%
    05:00 +20°C° 0.3 mm 1 mps 722 mmHg 88%
    06:00 +20°C° 0.3 mm 1 mps 722 mmHg 87%
    07:00 +21°C° 0.3 mm 1 mps 722 mmHg 87%
    08:00 +22°C° 0.2 mm 1 mps 722 mmHg 81%
    09:00 +24°C° 0.2 mm 2 mps 722 mmHg 75%
    10:00 +26°C° 0.2 mm 2 mps 722 mmHg 70%
    11:00 +27°C° 0.6 mm 1 mps 722 mmHg 66%
    12:00 +28°C° 0.6 mm 1 mps 721 mmHg 62%
    13:00 +29°C° 0.6 mm 1 mps 721 mmHg 58%
    14:00 +29°C° 1.4 mm 1 mps 721 mmHg 60%
    15:00 +28°C° 1.4 mm 1 mps 720 mmHg 62%
    16:00 +28°C° 1.4 mm 1 mps 720 mmHg 64%
    17:00 +26°C° 0.4 mm 1 mps 720 mmHg 69%
    18:00 +25°C° 0.4 mm 1 mps 720 mmHg 74%
    19:00 +23°C° 0.4 mm 1 mps 720 mmHg 79%
    20:00 +23°C° 0.2 mm 2 mps 720 mmHg 82%
    21:00 +21°C° 0.2 mm 2 mps 720 mmHg 84%
    22:00 +20°C° 0.2 mm 2 mps 720 mmHg 86%
    23:00 +20°C° 0.1 mm 2 mps 720 mmHg 87%

    24 August, Friday

    Time Temperature Precipitation Wind Pressure Humidity
    00:00 +19°C° 0.1 mm 2 mps 719 mmHg 88%
    01:00 +19°C° 0.1 mm 2 mps 719 mmHg 88%
    02:00 +18°C° 0 mm 2 mps 719 mmHg 88%
    03:00 +18°C° 0 mm 2 mps 718 mmHg 88%
    04:00 +17°C° 0 mm 2 mps 718 mmHg 88%
    05:00 +18°C° 0 mm 2 mps 718 mmHg 87%
    06:00 +18°C° 0 mm 2 mps 718 mmHg 85%
    07:00 +19°C° 0 mm 2 mps 718 mmHg 83%
    08:00 +21°C° 0.1 mm 2 mps 717 mmHg 76%
    09:00 +24°C° 0.1 mm 2 mps 717 mmHg 69%
    10:00 +26°C° 0.1 mm 2 mps 717 mmHg 62%
    11:00 +27°C° 0.2 mm 2 mps 717 mmHg 59%
    12:00 +28°C° 0.2 mm 2 mps 717 mmHg 56%
    13:00 +28°C° 0.2 mm 3 mps 716 mmHg 53%
    14:00 +26°C° 1.3 mm 3 mps 716 mmHg 64%
    15:00 +23°C° 1.3 mm 4 mps 716 mmHg 75%
    16:00 +21°C° 1.3 mm 5 mps 716 mmHg 86%
    17:00 +19°C° 3.5 mm 4 mps 716 mmHg 89%
    18:00 +18°C° 3.5 mm 4 mps 716 mmHg 92%
    19:00 +17°C° 3.5 mm 3 mps 717 mmHg 94%
    20:00 +16°C° 2.1 mm 3 mps 717 mmHg 95%
    21:00 +16°C° 2.1 mm 3 mps 717 mmHg 95%
    22:00 +14°C° 2.1 mm 3 mps 717 mmHg 95%
    23:00 +13°C° 1.1 mm 4 mps 717 mmHg 94%
    Show more